When you browse on this site, cookies collect data to enhance your experience and personalize the content and advertising you see.
Visit our Privacy Policy to learn more. By continuing to use the site, you agree to this use of cookies and data.
  • In United Kingdom
  • List of Countries
  • For 7 days
  • Water Temperature
  • Weather Map
  • Weather Widgets
  • user-avatar
    Login

    Hourly Weather Shaki

    Today, 25 August, Sunday

    Time Temperature Precipitation Wind Pressure Humidity
    00:00 +27°C° 0 mm 3 mps 734 mmHg 30%
    01:00 +27°C° 0 mm 2 mps 734 mmHg 30%
    02:00 +27°C° 0 mm 2 mps 734 mmHg 30%
    03:00 +26°C° 0 mm 1 mps 734 mmHg 30%
    04:00 +26°C° 0 mm 1 mps 734 mmHg 31%
    05:00 +26°C° 0 mm 1 mps 734 mmHg 32%
    06:00 +26°C° 0 mm 1 mps 734 mmHg 33%
    07:00 +29°C° 0 mm 1 mps 735 mmHg 31%
    08:00 +31°C° 0 mm 1 mps 735 mmHg 28%
    09:00 +34°C° 0 mm 2 mps 735 mmHg 25%
    10:00 +35°C° 0 mm 2 mps 735 mmHg 23%
    11:00 +36°C° 0 mm 3 mps 734 mmHg 22%
    12:00 +37°C° 0 mm 3 mps 734 mmHg 20%
    13:00 +38°C° 0 mm 3 mps 734 mmHg 19%
    14:00 +38°C° 0 mm 3 mps 734 mmHg 18%
    15:00 +39°C° 0 mm 3 mps 734 mmHg 17%
    16:00 +38°C° 0 mm 3 mps 733 mmHg 19%
    17:00 +37°C° 0 mm 2 mps 733 mmHg 21%
    18:00 +35°C° 0 mm 2 mps 733 mmHg 22%
    19:00 +33°C° 0 mm 3 mps 734 mmHg 24%
    20:00 +30°C° 0 mm 3 mps 734 mmHg 25%
    21:00 +28°C° 0 mm 4 mps 735 mmHg 26%
    22:00 +27°C° 0 mm 3 mps 735 mmHg 28%
    23:00 +27°C° 0 mm 3 mps 735 mmHg 30%

    Tomorrow, 26 August, Monday

    Time Temperature Precipitation Wind Pressure Humidity
    00:00 +26°C° 0 mm 2 mps 735 mmHg 32%
    01:00 +25°C° 0 mm 2 mps 735 mmHg 33%
    02:00 +25°C° 0 mm 1 mps 735 mmHg 34%
    03:00 +25°C° 0 mm 1 mps 735 mmHg 36%
    04:00 +25°C° 0.1 mm 1 mps 735 mmHg 37%
    05:00 +23°C° 0.1 mm 0 mps 735 mmHg 39%
    06:00 +22°C° 0.1 mm 0 mps 736 mmHg 41%
    07:00 +26°C° 0.1 mm 1 mps 736 mmHg 36%
    08:00 +28°C° 0.1 mm 1 mps 736 mmHg 31%
    09:00 +30°C° 0.1 mm 2 mps 736 mmHg 26%
    10:00 +31°C° 0 mm 2 mps 736 mmHg 25%
    11:00 +33°C° 0 mm 3 mps 736 mmHg 23%
    12:00 +35°C° 0 mm 3 mps 736 mmHg 22%
    13:00 +35°C° 0 mm 3 mps 736 mmHg 21%
    14:00 +36°C° 0 mm 3 mps 735 mmHg 19%
    15:00 +36°C° 0 mm 3 mps 735 mmHg 18%
    16:00 +35°C° 0 mm 4 mps 735 mmHg 19%
    17:00 +34°C° 0 mm 4 mps 735 mmHg 20%
    18:00 +33°C° 0 mm 4 mps 735 mmHg 22%
    19:00 +30°C° 0 mm 4 mps 736 mmHg 27%
    20:00 +28°C° 0 mm 4 mps 737 mmHg 32%
    21:00 +26°C° 0 mm 4 mps 737 mmHg 37%
    22:00 +25°C° 0 mm 4 mps 737 mmHg 40%
    23:00 +25°C° 0 mm 3 mps 737 mmHg 43%

    Day after tomorrow, 27 August, Tuesday

    Time Temperature Precipitation Wind Pressure Humidity
    00:00 +24°C° 0 mm 2 mps 737 mmHg 46%
    01:00 +24°C° 0 mm 2 mps 737 mmHg 48%
    02:00 +24°C° 0 mm 2 mps 737 mmHg 50%
    03:00 +24°C° 0 mm 2 mps 737 mmHg 52%
    04:00 +23°C° 0 mm 2 mps 737 mmHg 54%
    05:00 +23°C° 0 mm 2 mps 737 mmHg 56%
    06:00 +23°C° 0 mm 2 mps 737 mmHg 57%
    07:00 +25°C° 0 mm 3 mps 737 mmHg 54%
    08:00 +26°C° 0 mm 3 mps 737 mmHg 51%
    09:00 +28°C° 0 mm 3 mps 736 mmHg 47%
    10:00 +29°C° 0.1 mm 3 mps 736 mmHg 44%
    11:00 +30°C° 0.1 mm 4 mps 736 mmHg 40%
    12:00 +32°C° 0.1 mm 4 mps 735 mmHg 37%
    13:00 +33°C° 0.1 mm 3 mps 735 mmHg 36%
    14:00 +33°C° 0.1 mm 3 mps 734 mmHg 35%
    15:00 +34°C° 0.1 mm 3 mps 734 mmHg 34%
    16:00 +33°C° 0 mm 3 mps 734 mmHg 35%
    17:00 +33°C° 0 mm 3 mps 734 mmHg 37%
    18:00 +31°C° 0 mm 3 mps 734 mmHg 39%
    19:00 +29°C° 0 mm 3 mps 734 mmHg 42%
    20:00 +28°C° 0 mm 3 mps 734 mmHg 46%
    21:00 +26°C° 0 mm 3 mps 734 mmHg 50%
    22:00 +25°C° 0 mm 3 mps 734 mmHg 51%
    23:00 +25°C° 0 mm 2 mps 734 mmHg 53%

    28 August, Wednesday

    Time Temperature Precipitation Wind Pressure Humidity
    00:00 +24°C° 0 mm 2 mps 734 mmHg 54%
    01:00 +23°C° 0 mm 1 mps 734 mmHg 56%
    02:00 +23°C° 0 mm 1 mps 734 mmHg 58%
    03:00 +22°C° 0 mm 1 mps 733 mmHg 60%
    04:00 +23°C° 0 mm 1 mps 734 mmHg 59%
    05:00 +23°C° 0 mm 1 mps 734 mmHg 58%
    06:00 +23°C° 0 mm 1 mps 734 mmHg 58%
    07:00 +25°C° 0 mm 1 mps 734 mmHg 53%
    08:00 +27°C° 0 mm 1 mps 734 mmHg 48%
    09:00 +28°C° 0 mm 2 mps 734 mmHg 44%
    10:00 +30°C° 0 mm 2 mps 734 mmHg 41%
    11:00 +31°C° 0 mm 2 mps 734 mmHg 38%
    12:00 +32°C° 0 mm 2 mps 733 mmHg 35%
    13:00 +34°C° 0 mm 3 mps 733 mmHg 34%
    14:00 +34°C° 0 mm 3 mps 733 mmHg 33%
    15:00 +35°C° 0 mm 3 mps 733 mmHg 31%
    16:00 +34°C° 0 mm 2 mps 733 mmHg 34%
    17:00 +32°C° 0 mm 2 mps 733 mmHg 37%
    18:00 +31°C° 0 mm 1 mps 733 mmHg 39%
    19:00 +29°C° 0 mm 3 mps 733 mmHg 43%
    20:00 +28°C° 0 mm 5 mps 734 mmHg 46%
    21:00 +26°C° 0 mm 6 mps 734 mmHg 49%
    22:00 +25°C° 0 mm 5 mps 734 mmHg 53%
    23:00 +23°C° 0 mm 4 mps 734 mmHg 56%

    29 August, Thursday

    Time Temperature Precipitation Wind Pressure Humidity
    00:00 +22°C° 0 mm 3 mps 735 mmHg 59%
    01:00 +23°C° 0 mm 2 mps 735 mmHg 60%
    02:00 +23°C° 0 mm 2 mps 735 mmHg 62%
    03:00 +22°C° 0 mm 1 mps 735 mmHg 63%
    04:00 +22°C° 0 mm 1 mps 735 mmHg 63%
    05:00 +23°C° 0 mm 1 mps 735 mmHg 63%
    06:00 +23°C° 0 mm 1 mps 735 mmHg 64%
    07:00 +25°C° 0 mm 1 mps 735 mmHg 57%
    08:00 +27°C° 0 mm 2 mps 735 mmHg 51%
    09:00 +29°C° 0 mm 2 mps 735 mmHg 45%
    10:00 +30°C° 0 mm 2 mps 735 mmHg 42%
    11:00 +31°C° 0 mm 3 mps 734 mmHg 40%
    12:00 +33°C° 0 mm 3 mps 734 mmHg 37%
    13:00 +34°C° 0 mm 3 mps 734 mmHg 35%
    14:00 +34°C° 0 mm 3 mps 733 mmHg 34%
    15:00 +35°C° 0 mm 3 mps 733 mmHg 33%
    16:00 +34°C° 0 mm 3 mps 733 mmHg 34%
    17:00 +33°C° 0 mm 3 mps 733 mmHg 35%
    18:00 +31°C° 0 mm 3 mps 733 mmHg 36%
    19:00 +29°C° 0 mm 4 mps 733 mmHg 42%
    20:00 +27°C° 0 mm 5 mps 734 mmHg 47%
    21:00 +24°C° 0 mm 6 mps 734 mmHg 53%
    22:00 +25°C° 0 mm 5 mps 734 mmHg 55%
    23:00 +23°C° 0 mm 4 mps 734 mmHg 57%

    30 August, Friday

    Time Temperature Precipitation Wind Pressure Humidity
    00:00 +24°C° 0 mm 3 mps 734 mmHg 59%
    01:00 +22°C° 0.1 mm 3 mps 734 mmHg 63%
    02:00 +23°C° 0.1 mm 2 mps 734 mmHg 67%
    03:00 +21°C° 0.1 mm 2 mps 734 mmHg 71%
    04:00 +21°C° 0 mm 2 mps 734 mmHg 72%
    05:00 +21°C° 0 mm 2 mps 734 mmHg 74%
    06:00 +21°C° 0 mm 2 mps 734 mmHg 76%
    07:00 +23°C° 0.2 mm 2 mps 734 mmHg 72%
    08:00 +24°C° 0.2 mm 2 mps 734 mmHg 68%
    09:00 +25°C° 0.2 mm 2 mps 734 mmHg 64%
    10:00 +25°C° 0.1 mm 3 mps 734 mmHg 62%
    11:00 +26°C° 0.1 mm 3 mps 734 mmHg 60%
    12:00 +26°C° 0.1 mm 3 mps 734 mmHg 58%
    13:00 +26°C° 0.2 mm 3 mps 734 mmHg 60%
    14:00 +26°C° 0.2 mm 3 mps 734 mmHg 62%
    15:00 +26°C° 0.2 mm 2 mps 733 mmHg 65%
    16:00 +25°C° 0.7 mm 2 mps 734 mmHg 69%
    17:00 +24°C° 0.7 mm 1 mps 734 mmHg 74%
    18:00 +24°C° 0.7 mm 1 mps 734 mmHg 79%
    19:00 +23°C° 0.4 mm 1 mps 734 mmHg 81%
    20:00 +23°C° 0.4 mm 1 mps 735 mmHg 84%
    21:00 +22°C° 0.4 mm 1 mps 735 mmHg 86%
    22:00 +21°C° 0.1 mm 2 mps 735 mmHg 84%
    23:00 +21°C° 0.1 mm 2 mps 735 mmHg 83%
    Show more